TimeCST,TemperatureF,Dew PointF,Humidity,Sea Level PressureIn,VisibilityMPH,Wind Direction,Wind SpeedMPH,Gust SpeedMPH,PrecipitationIn,Events,Conditions,WindDirDegrees,DateUTC
12:07 AM,33.8,32.0,93,29.93,1.8,NNW,6.9,-,0.00,Snow,Light Snow,330,2013-02-13 06:07:00
12:53 AM,32.0,32.0,100,29.94,2.0,NNW,4.6,-,0.02,Snow,Light Snow,330,2013-02-13 06:53:00
1:19 AM,32.0,32.0,100,29.92,3.0,WNW,4.6,-,0.00,Snow,Light Snow,300,2013-02-13 07:19:00
1:36 AM,32.0,32.0,100,29.92,2.0,WNW,6.9,-,0.00,Snow,Light Snow,300,2013-02-13 07:36:00
1:43 AM,32.0,32.0,100,29.92,1.8,WNW,4.6,-,0.01,Snow,Light Snow,300,2013-02-13 07:43:00
1:53 AM,33.1,32.0,96,29.94,1.8,WNW,5.8,-,0.01,Snow,Light Snow,300,2013-02-13 07:53:00
2:34 AM,32.0,32.0,100,29.91,2.5,WNW,4.6,-,0.01,Snow,Light Snow,300,2013-02-13 08:34:00
2:53 AM,33.1,32.0,96,29.92,2.5,WNW,5.8,-,0.02,Snow,Light Snow,300,2013-02-13 08:53:00
3:15 AM,33.8,32.0,93,29.90,3.0,NW,5.8,-,0.00,Snow,Light Snow,310,2013-02-13 09:15:00
3:53 AM,32.0,32.0,100,29.93,2.5,WNW,8.1,-,0.01,Snow,Light Snow,300,2013-02-13 09:53:00
4:29 AM,33.8,32.0,93,29.92,3.0,WNW,8.1,-,0.00,,Overcast,300,2013-02-13 10:29:00
4:53 AM,33.1,32.0,96,29.95,7.0,NW,6.9,-,0.00,,Overcast,310,2013-02-13 10:53:00
5:43 AM,33.8,32.0,93,29.93,7.0,WNW,6.9,-,0.00,,Overcast,300,2013-02-13 11:43:00
5:53 AM,33.1,32.0,96,29.95,8.0,WNW,6.9,-,0.00,,Overcast,300,2013-02-13 11:53:00
6:43 AM,33.8,32.0,93,29.94,10.0,WNW,5.8,-,N/A,,Overcast,300,2013-02-13 12:43:00
6:53 AM,33.1,32.0,96,29.97,10.0,WNW,4.6,-,N/A,,Overcast,290,2013-02-13 12:53:00
7:02 AM,33.8,32.0,93,29.95,10.0,West,8.1,-,N/A,,Overcast,280,2013-02-13 13:02:00
7:41 AM,33.8,32.0,93,29.97,10.0,West,6.9,-,N/A,,Overcast,280,2013-02-13 13:41:00
7:53 AM,34.0,32.0,92,30.00,10.0,WNW,6.9,-,N/A,,Overcast,290,2013-02-13 13:53:00
8:26 AM,33.8,33.8,100,29.98,10.0,WNW,4.6,-,N/A,,Overcast,300,2013-02-13 14:26:00
8:53 AM,36.0,33.1,89,30.01,10.0,West,5.8,-,N/A,,Overcast,280,2013-02-13 14:53:00
9:41 AM,37.4,33.8,87,29.99,10.0,West,6.9,-,N/A,,Mostly Cloudy,260,2013-02-13 15:41:00
9:53 AM,37.9,34.0,86,30.01,10.0,WSW,10.4,17.3,N/A,,Mostly Cloudy,250,2013-02-13 15:53:00
10:10 AM,39.2,33.8,81,29.98,10.0,WSW,10.4,-,N/A,,Scattered Clouds,250,2013-02-13 16:10:00
10:53 AM,41.0,34.0,76,30.00,10.0,WSW,9.2,-,N/A,,Partly Cloudy,250,2013-02-13 16:53:00
11:53 AM,44.1,33.1,65,29.99,10.0,West,11.5,17.3,N/A,,Partly Cloudy,270,2013-02-13 17:53:00
12:53 PM,46.0,33.1,61,29.96,10.0,West,10.4,17.3,N/A,,Clear,260,2013-02-13 18:53:00
1:53 PM,48.0,33.1,56,29.95,10.0,West,11.5,-,N/A,,Scattered Clouds,280,2013-02-13 19:53:00
2:53 PM,50.0,30.0,46,29.93,10.0,West,10.4,-,N/A,,Clear,280,2013-02-13 20:53:00
3:53 PM,51.1,28.9,43,29.92,10.0,WNW,10.4,-,N/A,,Clear,290,2013-02-13 21:53:00
4:53 PM,50.0,30.0,46,29.93,10.0,WNW,10.4,-,N/A,,Clear,290,2013-02-13 22:53:00
5:53 PM,46.0,30.0,54,29.94,10.0,WSW,4.6,-,N/A,,Clear,240,2013-02-13 23:53:00
6:53 PM,43.0,28.9,58,29.95,10.0,Calm,Calm,-,N/A,,Clear,0,2013-02-14 00:53:00
7:53 PM,42.1,30.0,62,29.95,10.0,WSW,3.5,-,N/A,,Clear,250,2013-02-14 01:53:00
8:53 PM,44.1,28.9,55,29.95,10.0,West,8.1,-,N/A,,Clear,260,2013-02-14 02:53:00
9:53 PM,44.1,28.0,53,29.96,10.0,West,9.2,-,N/A,,Clear,260,2013-02-14 03:53:00
10:53 PM,45.0,28.9,53,29.95,10.0,WSW,9.2,-,N/A,,Clear,250,2013-02-14 04:53:00
11:53 PM,45.0,28.9,53,29.95,10.0,West,9.2,17.3,N/A,,Clear,260,2013-02-14 05:53:00